sat.trackr.live / text

‹ back to catalog

STARLINK-34717

NORAD 65060 · 2025-165E

PAYLOAD ACTIVE UNKNOWN

§ Identity

Operator
Country
US
Launch date
2025-07-31
Launch site
AFWTR
Launch vehicle
Mass (kg)
RCS (m²)

Purposes: comms

External: N2YO · Heavens-Above · Gunter

§ Orbital elements

Epoch: 2026-09-20T22:00:03.000096Z

Period
93.91 min
Inclination
97.2856°
Eccentricity
0.0001679
Mean motion
15.33431483 rev/d
Perigee alt
464.4 km
Apogee alt
466.7 km
Semi-major
6,843.7 km
B*
-8.7984e-4
RAAN
335.1439°
Arg perigee
96.5842°
Mean anomaly
134.1441°
Rev number
564

§ Raw data

STARLINK-347171 65060U 25165E   26263.91670139 -.00028363  00000+0 -87984-3 0  99932 65060  97.2856 335.1439 0001679  96.5842 134.1441 15.33431483  5649

JSON: /api/v1/satellites/65060 · /tle

For live sub-satellite position, see the globe view (requires WebGL).

§ Visibility from observer

Set your observer location to see the next 7 days of passes ≥ 10°. The values pass through the URL so the page stays shareable.

No JS? Fill the form by hand. The geolocation button needs JavaScript.